[[{"header":{"parameterUnit":"m.s-1","parameterCategory":1,"la1":30.2991,"la2":30.254,"lo1":-89.0895,"lo2":-89.0444,"dy":0.0017,"dx":0.0017,"nx":28,"ny":28,"refTime":"2024-06-15T21:00:00:Z","depth":0,"parameterNumber":2,"parameterNumberName":"U-component_of_WINDS"},"data":[0,0,0,0,0,0,0,0,0,0,0,0,0,0,0,0,0,0,0,0,0,0,0,0,0,0,0,0,0,0,0,0,0,0,0,0,0,0,0,0,0,0,0,0,0,0,0,0,0,0,0,0,0,0,0,0,0,0,-5.3873,-5.3873,0,-5.3931,-5.3932,-5.3933,-5.3826,-5.3823,-5.3819,-5.3816,-5.3874,-5.3878,-5.3883,0,0,0,0,0,0,0,0,0,0,0,0,0,-5.3667,-5.3671,-5.3872,-5.3873,-5.3874,-5.3931,-5.3932,-5.3933,-5.3827,-5.3823,-5.3818,-5.3814,-5.3872,-5.3878,-5.3884,0,0,0,0,0,0,0,0,0,0,0,0,0,-5.3744,-5.3673,-5.3872,-5.3828,-5.3825,-5.3931,-5.3932,-5.3933,-5.3828,-5.3823,-5.3817,-5.3812,-5.387,-5.3877,-5.3884,-5.4036,0,0,-5.3907,-5.391,0,0,0,0,0,0,0,0,-5.374,-5.3752,-5.3834,-5.3831,-5.3828,-5.3866,-5.3881,-5.3968,-5.3829,-5.3827,-5.3816,-5.381,-5.3875,-5.3882,-5.3904,-5.4039,-5.4041,-5.3907,-5.3912,-5.3915,-5.3917,0,0,0,0,0,0,0,-5.3735,-5.3749,-5.3896,-5.3835,-5.3831,-5.3805,-5.381,-5.3897,-5.388,-5.3826,-5.3819,-5.3827,-5.3873,-5.3898,-5.3905,-5.4042,-5.3907,-5.3914,-5.3918,-5.3921,-5.4303,-5.4308,0,0,0,0,0,0,-5.3735,-5.3745,-5.3894,-5.3897,-5.377,-5.3813,-5.3819,-5.3859,-5.3879,-5.3877,-5.3832,-5.3822,-5.3888,-5.3897,-5.3907,-5.4083,-5.3915,-5.3922,-5.3926,-5.4297,-5.4304,-5.431,0,0,0,0,0,0,-5.3731,-5.3749,-5.3891,-5.3819,-5.3835,-5.3822,-5.3869,-5.3863,-5.3888,-5.3883,-5.3879,-5.3861,-5.3884,-5.3896,-5.4005,-5.4084,-5.3925,-5.3931,-5.429,-5.4299,-5.4307,-5.4439,0,0,0,0,0,0,-5.3726,-5.3749,-5.3806,-5.3821,-5.384,-5.3989,-5.3874,-5.3868,-5.3901,-5.3889,-5.3909,-5.3907,-5.3881,-5.3994,-5.4012,-5.4091,-5.3937,-5.4283,-5.4294,-5.4304,-5.4428,-5.4451,-5.4472,0,0,0,0,0,-5.3719,-5.384,-5.3809,-5.3828,-5.3911,-5.3994,-5.4004,-5.3972,-5.3908,-5.3965,-5.3962,-5.3906,-5.4074,-5.4006,-5.4025,-5.4108,-5.4278,-5.4291,-5.4304,-5.4418,-5.4447,-5.4471,0,0,0,0,0,0,-5.3833,-5.3841,-5.3807,-5.3938,-5.3966,-5.3976,-5.4046,-5.4004,-5.405,-5.4036,-5.3994,-5.4,-5.4116,-5.4123,-5.4048,-5.4255,-5.4165,-5.4182,-5.4245,-5.4273,-5.4294,-5.4288,-5.3943,0,0,0,0,0,-5.3874,-5.3941,-5.3945,-5.4059,-5.4076,-5.406,-5.4094,-5.4067,-5.4094,-5.4105,-5.411,-5.4138,-5.4197,-5.4236,-5.429,-5.443,-5.4432,-5.4497,-5.4519,-5.4537,-5.4551,-5.4624,-5.4652,-5.4353,-5.4353,-5.4353,0,0,-5.3958,-5.3971,-5.4015,-5.4083,-5.4101,-5.4171,-5.407,-5.4147,-5.4198,-5.4117,-5.4218,-5.4224,-5.4252,-5.4377,-5.4432,-5.4386,-5.4635,-5.4553,-5.4568,-5.4572,-5.464,-5.4669,-5.4694,-5.4362,-5.436,-5.4359,0,0,-5.4145,-5.4164,-5.426,-5.4282,-5.4312,-5.4301,-5.4325,-5.4342,-5.4342,-5.4444,-5.4385,-5.4445,-5.4548,-5.457,-5.4594,-5.4795,-5.4744,-5.4814,-5.4927,-5.4999,-5.5022,-5.5043,-5.5111,-5.5137,-5.4829,-5.4829,-5.483,0,-5.4245,-5.4347,-5.4315,-5.4397,-5.4428,-5.4361,-5.4457,-5.448,-5.4526,-5.4549,-5.4498,-5.4626,-5.464,-5.4768,-5.4817,-5.4841,-5.4865,-5.4809,-5.5022,-5.5042,-5.5061,-5.5126,-5.5152,-5.4837,-5.4836,-5.4836,-5.4835,0,-5.4468,-5.454,-5.4615,-5.4662,-5.4702,-5.4791,-5.4772,-5.4817,-5.4788,-5.4782,-5.4887,-5.4903,-5.4959,-5.4988,-5.4961,-5.5113,-5.5084,-5.5029,-5.4936,-5.5098,-5.5158,-5.5183,-5.4849,-5.4846,-5.4843,-5.4842,0,0,-5.4723,-5.4754,-5.4782,-5.4802,-5.4832,-5.4887,-5.4975,-5.503,-5.5068,-5.5104,-5.5174,-5.5264,-5.5214,-5.5242,-5.5217,-5.5281,-5.5436,-5.5218,-5.5218,-5.5255,-5.5602,-5.564,-5.5669,-5.5405,-5.541,-5.5414,-5.5598,0,-5.4907,-5.5056,-5.5031,-5.5175,-5.5241,-5.518,-5.5256,-5.5282,-5.5281,-5.5336,-5.5334,-5.5397,-5.5328,-5.5344,-5.5405,-5.5404,-5.5504,-5.5391,-5.5467,-5.5471,-5.5457,-5.5701,-5.5741,-5.5914,-5.5622,-5.5626,-5.5629,0,-5.5139,-5.5184,-5.5336,-5.5356,-5.5383,-5.5451,-5.55,-5.5555,-5.5584,-5.5578,-5.5612,-5.5576,-5.5662,-5.5573,-5.569,-5.5614,-5.5645,-5.5649,-5.5655,-5.5657,-5.5556,-5.5705,-5.5969,-5.5994,-5.5666,-5.5663,-5.5661,0,-5.5306,-5.5405,-5.5508,-5.5528,-5.5556,-5.5605,-5.5619,-5.5643,-5.5678,-5.5722,-5.5744,-5.5798,-5.5826,-5.5868,-5.5847,-5.5784,-5.5968,-5.5877,-5.5963,-5.5964,-5.5999,-5.5997,-5.6268,-5.6028,-5.6028,-5.6027,-5.6026,0,-5.551,-5.5604,-5.5583,-5.5646,-5.575,-5.5722,-5.5825,-5.5831,-5.5854,-5.5917,-5.587,-5.5929,-5.59,-5.5958,-5.5943,-5.6041,-5.6055,-5.6052,-5.6045,-5.6053,-5.6053,-5.6069,-5.6054,-5.6034,-5.6032,-5.6031,-5.603,0,-5.5711,-5.5702,-5.5809,-5.5828,-5.5835,-5.591,-5.5925,-5.5984,-5.5981,-5.6061,-5.6078,-5.6072,-5.6138,-5.6123,-5.6195,-5.6185,-5.6307,-5.6289,-5.6297,-5.6291,-5.6376,-5.6367,-5.6663,-5.6699,-5.644,-5.6443,-5.6445,0,-5.584,-5.5911,-5.5938,-5.5977,-5.5995,-5.6058,-5.6094,-5.6071,-5.611,-5.6151,-5.6204,-5.6267,-5.6314,-5.6422,-5.6423,-5.6479,-5.6458,-5.6558,-5.6465,-5.6471,-5.6455,-5.6449,-5.6455,-5.6575,-5.6578,-5.658,-5.6582,0,-5.6068,-5.606,-5.6114,-5.6168,-5.6213,-5.6254,-5.629,-5.6325,-5.6304,-5.6351,-5.6419,-5.6456,-5.6531,-5.6592,-5.6643,-5.6657,-5.6616,-5.6613,-5.6634,-5.664,-5.6641,-5.6638,-5.6342,-5.6604,-5.6602,-5.66,-5.6599,-5.6598,-5.6233,-5.6293,-5.6322,-5.6384,-5.641,-5.6446,-5.6501,-5.6506,-5.6562,-5.6621,-5.6604,-5.668,-5.6709,-5.6774,-5.6795,-5.6853,-5.6815,-5.6848,-5.6856,-5.6863,-5.6872,-5.6636,-5.6863,-5.6863,-5.6862,-5.6861,-5.6861,0,-5.6455,-5.6472,-5.653,-5.6583,-5.6632,-5.6593,-5.6632,-5.6675,-5.6743,-5.6774,-5.6823,-5.69,-5.6961,-5.6969,-5.7026,-5.7071,-5.7054,-5.7086,-5.708,-5.7083,-5.6904,-5.6877,-5.7099,-5.7099,-5.7099,-5.7099,-5.7099,-5.7099,-5.6576,-5.6675,-5.6672,-5.6783,-5.6798,-5.6873,-5.6898,-5.6931,-5.6955,-5.7044,-5.7094,-5.71,-5.7122,-5.7181,-5.7234,-5.7235,-5.7256,-5.7296,-5.7289,-5.712,-5.7096,-5.7073,-5.7048,-5.7302,-5.7302,-5.7463,-5.7464,-5.7465]},{"header":{"parameterUnit":"m.s-1","parameterCategory":1,"la1":30.2991,"la2":30.254,"lo1":-89.0895,"lo2":-89.0444,"dy":0.0017,"dx":0.0017,"nx":28,"ny":28,"refTime":"2024-06-15T21:00:00:Z","depth":0,"parameterNumber":3,"parameterNumberName":"V-component_of_WINDS"},"data":[0,0,0,0,0,0,0,0,0,0,0,0,0,0,0,0,0,0,0,0,0,0,0,0,0,0,0,0,0,0,0,0,0,0,0,0,0,0,0,0,0,0,0,0,0,0,0,0,0,0,0,0,0,0,0,0,0,0,2.3443,2.3442,0,2.3408,2.3408,2.3407,2.3311,2.3309,2.3307,2.3305,2.327,2.3271,2.3272,0,0,0,0,0,0,0,0,0,0,0,0,0,2.3428,2.3428,2.3443,2.3442,2.3442,2.3408,2.3408,2.3407,2.3311,2.3309,2.3306,2.3304,2.3269,2.3271,2.3272,0,0,0,0,0,0,0,0,0,0,0,0,0,2.3418,2.3429,2.3443,2.339,2.3385,2.3408,2.3408,2.3407,2.3312,2.3309,2.3305,2.3303,2.3269,2.3271,2.3272,2.3344,0,0,2.3277,2.3277,0,0,0,0,0,0,0,0,2.3419,2.3418,2.3398,2.3393,2.3388,2.336,2.3389,2.3386,2.3313,2.3339,2.3305,2.3301,2.3303,2.3301,2.3301,2.3342,2.3341,2.3277,2.3278,2.3278,2.3279,0,0,0,0,0,0,0,2.3419,2.3419,2.3429,2.3398,2.3392,2.3369,2.3364,2.3388,2.3339,2.3337,2.333,2.3327,2.3299,2.33,2.33,2.334,2.3277,2.3278,2.3279,2.328,2.344,2.3443,0,0,0,0,0,0,2.3427,2.3421,2.343,2.3428,2.3396,2.3371,2.3366,2.3372,2.3338,2.333,2.333,2.3323,2.3299,2.3298,2.3298,2.338,2.3278,2.328,2.3281,2.3437,2.3441,2.3444,0,0,0,0,0,0,2.3427,2.3429,2.3431,2.3422,2.3421,2.3375,2.3383,2.3373,2.3374,2.3333,2.3324,2.334,2.3297,2.3296,2.3334,2.3378,2.328,2.3282,2.3433,2.3438,2.3443,2.3545,0,0,0,0,0,0,2.3427,2.343,2.3456,2.3424,2.3422,2.3467,2.3386,2.3375,2.3377,2.3368,2.334,2.3332,2.3294,2.3332,2.3335,2.3378,2.3283,2.3428,2.3435,2.3441,2.3538,2.3553,2.3566,0,0,0,0,0,2.3427,2.3486,2.3458,2.3459,2.3453,2.3469,2.3468,2.3423,2.3381,2.3407,2.3381,2.3333,2.3373,2.3337,2.3339,2.3383,2.3425,2.3433,2.344,2.3531,2.355,2.3566,0,0,0,0,0,0,2.3523,2.348,2.3449,2.3498,2.3489,2.3453,2.3484,2.3444,2.3446,2.3437,2.3381,2.3376,2.3421,2.3406,2.3366,2.3452,2.3392,2.34,2.3459,2.3477,2.3491,2.3493,2.3284,0,0,0,0,0,2.3551,2.3567,2.3529,2.3577,2.3573,2.3531,2.3536,2.3502,2.3489,2.3484,2.3461,2.3451,2.3461,2.3468,2.3476,2.3536,2.3529,2.3568,2.3583,2.3595,2.3602,2.3633,2.365,2.3469,2.3469,2.3469,0,0,2.3607,2.3585,2.3599,2.3596,2.3584,2.3602,2.3527,2.355,2.3563,2.3488,2.3521,2.3505,2.349,2.3539,2.356,2.3528,2.3651,2.3604,2.3614,2.3615,2.3643,2.366,2.3676,2.3474,2.3473,2.3472,0,0,2.3718,2.3703,2.3742,2.3732,2.3716,2.3687,2.3697,2.3668,2.3654,2.3687,2.3632,2.3648,2.3666,2.3658,2.3656,2.3769,2.3725,2.3773,2.3847,2.3879,2.3893,2.3905,2.3945,2.396,2.3781,2.3781,2.3781,0,2.3789,2.3814,2.3766,2.3793,2.3794,2.3728,2.3767,2.376,2.3747,2.3749,2.3715,2.3738,2.3723,2.377,2.3798,2.3799,2.3809,2.3774,2.3895,2.3907,2.3917,2.3954,2.397,2.3787,2.3786,2.3786,2.3785,0,2.3903,2.3922,2.3955,2.3944,2.3949,2.3982,2.394,2.3951,2.3919,2.3894,2.393,2.3911,2.3913,2.3922,2.389,2.3966,2.3946,2.3905,2.3842,2.3941,2.3975,2.3989,2.3795,2.3793,2.3792,2.379,0,0,2.4069,2.4035,2.4047,2.4042,2.4021,2.4035,2.4067,2.4069,2.408,2.4074,2.4099,2.4118,2.4079,2.4078,2.4045,2.4073,2.4163,2.4027,2.4026,2.4052,2.4245,2.4275,2.4292,2.4135,2.4138,2.414,2.4246,0,2.4173,2.4223,2.4183,2.424,2.4257,2.4197,2.4224,2.4215,2.4194,2.4207,2.4184,2.4198,2.4146,2.4145,2.417,2.4147,2.4201,2.4139,2.4157,2.4158,2.416,2.431,2.4342,2.4443,2.4259,2.4261,2.4263,0,2.4299,2.4301,2.436,2.4337,2.4343,2.4368,2.4368,2.4381,2.437,2.4353,2.4353,2.4313,2.4343,2.4284,2.4325,2.4284,2.4289,2.428,2.4282,2.428,2.4215,2.4311,2.4474,2.4489,2.4283,2.4281,2.428,0,2.4414,2.4431,2.4468,2.4466,2.4441,2.446,2.445,2.4436,2.4441,2.4442,2.4445,2.445,2.4452,2.4457,2.4421,2.4381,2.4466,2.4404,2.4452,2.4454,2.447,2.447,2.4635,2.4478,2.4478,2.4477,2.4477,0,2.4533,2.4571,2.452,2.4543,2.4585,2.454,2.4583,2.4567,2.4556,2.4575,2.4525,2.4544,2.4495,2.451,2.4482,2.452,2.4522,2.4509,2.45,2.4512,2.4514,2.4513,2.4505,2.4481,2.4481,2.448,2.4479,0,2.4666,2.4633,2.467,2.4644,2.4639,2.4671,2.4648,2.4669,2.4647,2.4672,2.4676,2.464,2.4655,2.462,2.463,2.4611,2.4665,2.4646,2.4669,2.4662,2.4713,2.4708,2.4882,2.4902,2.4734,2.4736,2.4737,0,2.4743,2.4771,2.4749,2.4759,2.4752,2.4768,2.4773,2.4732,2.4739,2.4731,2.4753,2.4764,2.477,2.4798,2.4773,2.4781,2.4761,2.4822,2.4762,2.4773,2.4761,2.4759,2.4761,2.4833,2.4836,2.4837,2.4839,0,2.4882,2.4866,2.4875,2.488,2.4889,2.489,2.4889,2.49,2.4855,2.4867,2.4882,2.4888,2.4899,2.4911,2.4913,2.4904,2.4864,2.4858,2.487,2.4881,2.4892,2.4886,2.4701,2.4854,2.4852,2.4851,2.485,2.485,2.4988,2.5011,2.5,2.5013,2.5008,2.5008,2.5027,2.5008,2.502,2.5025,2.5001,2.5022,2.5012,2.5012,2.5007,2.5024,2.4996,2.5013,2.5017,2.5021,2.5029,2.4892,2.5024,2.5024,2.5023,2.5023,2.5023,0,2.5124,2.5115,2.5128,2.5128,2.5139,2.5102,2.5099,2.5111,2.513,2.5125,2.5133,2.5152,2.5164,2.5142,2.515,2.5168,2.515,2.5171,2.5168,2.5167,2.5053,2.5042,2.5186,2.5186,2.5186,2.5185,2.5185,2.5185,2.5196,2.5233,2.5216,2.5251,2.5241,2.5261,2.5263,2.5263,2.5259,2.5282,2.5292,2.5278,2.5266,2.5274,2.5284,2.5277,2.5282,2.531,2.5297,2.5191,2.5175,2.5159,2.5148,2.5312,2.5312,2.5409,2.541,2.541]}]]